Regional Weather Roundup
Issued by NWS

Home | Current Version | Previous Version | Graphics & Text | Print | Product List | Glossary On
Versions: 1 2 3 4 5 6 7 8 9 10 11 12 13 14 15 16 17 18 19 20 21 22 23 24 25 26 27 28 29 30 31 32 33 34 35 36 37 38 39 40 41 42 43 44 45 46 47 48 49 50
000
ASUS45 KBOU 191707
RWRCO

WEATHER ROUNDUP FOR COLORADO
NATIONAL WEATHER SERVICE DENVER/BOULDER CO
1100 AM MDT SUN OCT 19 2014

NOTE: "FAIR" INDICATES FEW OR NO CLOUDS BELOW 12000 FEET WITH NO
SIGNIFICANT WEATHER AND/OR OBSTRUCTIONS TO VISIBILITY.

COZ001>005-013-030-031-191800-
...NORTHWEST COLORADO...

CITY           SKY/WX    TMP DP  RH WIND       PRES   REMARKS
CRAIG          SUNNY     58  35  42 CALM      30.22F
HAYDEN         SUNNY     55  30  38 E6        30.23F
MEEKER         MOSUNNY   58  32  37 CALM      30.22F
MOUNT WERNER   NOT AVBL
STEAMBOAT SPGS SUNNY     50  31  48 CALM      30.24F
WALDEN         SUNNY     50  28  43 CALM      30.30F
$$

COZ006>008-011-191800-
...WEST CENTRAL VALLEYS...

CITY           SKY/WX    TMP DP  RH WIND       PRES   REMARKS
GRAND JUNCTION MOSUNNY   65  42  43 S9        30.14S
MONTROSE       MOSUNNY   64  37  36 W3        30.19F
EAGLE          MOSUNNY   50  36  57 CALM      30.28F
RIFLE          CLOUDY    59  36  42 VRB3      30.19F
DELTA          MOSUNNY   62  39  42 CALM      30.17F
NUCLA          MOSUNNY   59  37  44 NW5       30.23S
$$

COZ017>023-064>068-191800-
...SOUTHWEST COLORADO...

CITY           SKY/WX    TMP DP  RH WIND       PRES   REMARKS
DURANGO        SUNNY     58  41  53 VRB3      30.25S
CORTEZ         SUNNY     65  42  43 VRB6      30.19F
PAGOSA SPRINGS SUNNY     58  36  43 CALM      30.29F
TELLURIDE      MOSUNNY   56  33  40 CALM      30.33S
WOLF CREEK PAS CLOUDY    41  32  70 SW7       30.48S
$$

COZ009-010-012-014-032>034-037-058>063-191800-
...CENTRAL COLORADO...

CITY           SKY/WX    TMP DP  RH WIND       PRES   REMARKS
ASPEN          CLOUDY    54  33  45 CALM      30.28S
BUENA VISTA    MOSUNNY   56  32  40 CALM      30.30S
COPPER MTN     PTSUNNY   45  27  49 E5        30.48S
BERTHOUD PASS  PTSUNNY   36  34  93 MISG      30.52S
COTTONWOOD PAS PTSUNNY   55  32  41 SE5       30.38S
GUNNISON       CLOUDY    52  34  50 CALM      30.32F
KREMMLING      MOSUNNY   50  30  46 CALM        N/A
LEADVILLE      MOSUNNY   50  27  40 VRB5      30.36F
SALIDA         PTSUNNY   61  38  42 CALM      30.34F
SUNLIGHT       CLOUDY    46  32  57 CALM      30.43F
WILKERSON PASS NOT AVBL
$$

COZ069>075-191800-
...SAN LUIS VALLEY/SANGRE DE CRISTO MOUNTAINS...

CITY           SKY/WX    TMP DP  RH WIND       PRES   REMARKS
ALAMOSA        SUNNY     56  39  53 CALM      30.28F
LA VETA PASS   MOSUNNY   46  36  66 SW3       30.39F
SAGUACHE       MOSUNNY   54  37  54 CALM      30.31F
$$

COZ035-036-038>040-191800-
...NORTHERN COLORADO FRONT RANGE...

CITY           SKY/WX    TMP DP  RH WIND       PRES   REMARKS
DENVER INTL AP PTSUNNY   65  36  34 SW5       30.15R
DMNS CITY PARK   N/A     67  37  33 S3        30.14S
AURORA         PTSUNNY   65  37  34 SW7       30.16S
FRONT RANGE AP NOT AVBL
ERIE MUNI ARPT MOSUNNY   67  35  30 CALM      30.13S
BOULDER MUN AP MOSUNNY   68  36  30 CALM      30.13S
CENTENNIAL     PTSUNNY   64  35  34 SW6       30.17S
BROOMFIELD     MOSUNNY   68  37  32 S6        30.15S
FORT COLLINS   SUNNY     64  37  36 CALM      30.14S
LONGMONT       SUNNY     71  37  28 SE3       30.14S
$$

COZ041-046-047-076>085-087-088-191800-
...PIKES PEAK/PALMER DIVIDE AND SOUTHERN FOOTHILLS...

CITY           SKY/WX    TMP DP  RH WIND       PRES   REMARKS
COLO. SPRINGS  MOSUNNY   70  29  21 N10G17    30.19S
A. F. ACADEMY  MOSUNNY   66  29  24 N12       30.20S
ELLICOTT       NOT AVBL
FALCON         MOSUNNY   66  27  23 N10       30.22F
FORT CARSON    MOSUNNY   70  33  25 N13       30.15F
LIMON          MOSUNNY   67  34  29 N17       30.13R
MONUMENT HILL  PTSUNNY   59  30  33 W5        30.23S
TRINIDAD       SUNNY     71  36  27 N14       30.14F
$$

COZ042>045-048>051-090-091-191800-
...NORTHEAST COLORADO...

CITY           SKY/WX    TMP DP  RH WIND       PRES   REMARKS
GREELEY ARPT   SUNNY     64  39  39 CALM      30.13S
AKRON          SUNNY     63  39  41 N9        30.09S
BURLINGTON     SUNNY     67  43  41 N8        30.06S
WRAY           SUNNY     68  42  40 NW6       30.05S
STERLING       SUNNY     64  43  45 CALM      30.08S
HOLYOKE        SUNNY     68  43  40 N7        30.06R
FORT MORGAN    SUNNY     63  36  36 W5        30.11S
$$

COZ086-089-092>099-191800-
...SOUTHEAST COLORADO...

CITY           SKY/WX    TMP DP  RH WIND       PRES   REMARKS
PUEBLO         CLOUDY    65  42  43 W5        30.11S
LA JUNTA       SUNNY     66  45  46 W9        30.07F
LAMAR          SUNNY     63  47  55 W12       30.04F
SPRINGFIELD      N/A     70  44  39 NW9       30.06
$$


USA.gov is the U.S. government's official web portal to all federal, state and local government web resources and services.